This is the latest recevied weather packets stored in our database for station/object CT2IRJ-11. If no packets are shown the sender has not sent any weather packets the latest 10 day(s).
| Time | Temp. | Humidity | Pressure | Rain* | Wind** | Luminosity | Snow |
|---|---|---|---|---|---|---|---|
| 1777668212 | 16.67° C | 68% | 1018.3 hPa | 0 mm | - | 0 W/m² | - |
| 1777667909 | 16.67° C | 68% | 1018.6 hPa | 0 mm | - | 0 W/m² | - |
| 1777667609 | 16.67° C | 68% | 1018.3 hPa | 0 mm | - | 0 W/m² | - |
| 1777667309 | 16.67° C | 68% | 1018.3 hPa | 0 mm | - | 0 W/m² | - |
| 1777667010 | 16.67° C | 68% | 1018.6 hPa | 0 mm | - | 0 W/m² | - |
| 1777666710 | 16.67° C | 68% | 1018.3 hPa | 0 mm | - | 0 W/m² | - |
| 1777666410 | 16.67° C | 69% | 1017.9 hPa | 0 mm | - | 0 W/m² | - |
| 1777666109 | 16.67° C | 68% | 1017.9 hPa | 0 mm | - | 0 W/m² | - |
| 1777665810 | 17.22° C | 68% | 1018.3 hPa | 0 mm | - | 0 W/m² | - |
| 1777665510 | 17.22° C | 68% | 1017.9 hPa | 0 mm | - | 0 W/m² | - |
| 1777665210 | 17.22° C | 67% | 1018.3 hPa | 0 mm | - | 0 W/m² | - |
| 1777664910 | 17.22° C | 67% | 1018.3 hPa | 0 mm | - | 0 W/m² | - |
| 1777664322 | 17.22° C | 66% | 1017.9 hPa | 0 mm | - | 0 W/m² | - |
| 1777664009 | 17.78° C | 66% | 1017.9 hPa | 0 mm | - | 0 W/m² | - |
| 1777663709 | 17.78° C | 66% | 1017.9 hPa | 0 mm | - | 0 W/m² | - |
| 1777663410 | 17.78° C | 65% | 1017.9 hPa | 0 mm | - | 0 W/m² | - |
| 1777663110 | 17.78° C | 65% | 1017.9 hPa | 0 mm | - | 1 W/m² | - |
| 1777662809 | 17.78° C | 64% | 1017.6 hPa | 0 mm | - | 3 W/m² | - |
| 1777662509 | 18.33° C | 64% | 1017.9 hPa | 0 mm | - | 4 W/m² | - |
| 1777662210 | 18.33° C | 64% | 1017.9 hPa | 0 mm | - | 7 W/m² | - |
| 1777661909 | 18.33° C | 63% | 1017.9 hPa | 0 mm | - | 10 W/m² | - |
| 1777661609 | 18.89° C | 63% | 1017.6 hPa | 0 mm | - | 13 W/m² | - |
| 1777661309 | 18.89° C | 63% | 1017.6 hPa | 0 mm | - | 14 W/m² | - |
| 1777661011 | 18.89° C | 63% | 1017.6 hPa | 0 mm | - | 20 W/m² | - |
| 1777660709 | 18.89° C | 63% | 1017.6 hPa | 0 mm | - | 25 W/m² | - |
* Rain latest hour (hover to see other rain measurements)
** Current wind speed in m/s (hover to see current wind gust speed)